This demonstration page uses our WeatherBlox Daily Observations layout. Learn more.

Left ArrowRight Arrow

38.20091, -84.87328

Hourly Observations for August 18, 2018

Temp ( °F °C ) Dew Point ( °F °C ) Humidity (%) Winds ( mph kmh ) Pressure ( in mb ) Visibility ( mi km ) Precip ( " mm )
12:37 am 00:37 Mostly Cloudy 73 22.8 71 21.7 94 94 Calm 29.97 1015 10 16 0.00 0.00
12:53 am 00:53 Mostly Cloudy 73 22.8 71 21.7 94 94 Calm 29.97 1015 9 14 0.00 0.00
1:15 am 01:15 Mostly Cloudy 73 22.8 71 21.7 94 94 Calm 29.97 1015 10 16 0.00 0.00
1:53 am 01:53 Partly Cloudy 73 22.8 71 21.7 94 94 SW 5 7 29.97 1015 9 14 0.00 0.00
2:53 am 02:53 Cloudy 74 23.3 71 21.7 91 91 SW 8 13 29.96 1015 9 14 0.01 0.25
3:21 am 03:21 Cloudy with Heavy Rain 73 22.8 72 22.2 96 96 VRB 6 9 29.94 1014 2 3 0.16 4.06
3:31 am 03:31 Cloudy with Light Rain 73 22.8 71 21.7 94 94 WSW 3 6 29.97 1015 3 5 0.18 4.57
3:53 am 03:53 Mostly Cloudy 73 22.8 71 21.7 94 94 Calm 29.95 1014 10 16 0.18 4.57
4:53 am 04:53 Mostly Clear 73 22.8 71 21.7 94 94 S 5 7 29.94 1014 10 16 0.00 0.00
5:53 am 05:53 Mostly Cloudy 73 22.8 71 21.7 94 94 SW 6 9 29.95 1014 9 14 0.00 0.00
6:53 am 06:53 Mostly Cloudy 72 22.2 71 21.7 97 97 Calm 29.95 1014 7 11 0.00 0.00
7:29 am 07:29 Mostly Cloudy with Mist and Fog 72 22.2 71 21.7 97 97 WSW 3 6 29.94 1014 6 10 0.00 0.00
7:53 am 07:53 Cloudy 73 22.8 71 21.7 94 94 W 3 6 29.95 1014 7 11 0.00 0.00
8:00 am 08:00 Cloudy 73 22.8 71 21.7 94 94 WNW 3 6 29.94 1014 7 11 0.00 0.00
8:25 am 08:25 Cloudy 74 23.3 72 22.2 94 94 W 3 6 29.94 1014 7 11 0.00 0.00
8:53 am 08:53 Cloudy with Mist and Fog 74 23.3 72 22.2 94 94 SW 6 9 29.96 1015 6 10 0.00 0.00
9:00 am 09:00 Cloudy with Mist and Fog 74 23.3 72 22.2 94 94 SW 5 7 29.94 1014 6 10 0.00 0.00
9:11 am 09:11 Mostly Cloudy 74 23.3 72 22.2 94 94 WSW 3 6 29.94 1014 7 11 0.00 0.00
9:49 am 09:49 Mostly Cloudy 75 24 73 23 94 94 W 3 6 29.94 1014 9 14 0.00 0.00
9:53 am 09:53 Mostly Cloudy 76 24.4 73 22.8 91 91 W 3 6 29.96 1014 9 14 0.00 0.00
10:27 am 10:27 Mostly Cloudy 78 25.6 72 22.2 82 82 Calm 29.94 1014 10 16 0.00 0.00
10:50 am 10:50 Mostly Cloudy 79 26 72 22 79 79 WNW 5 7 29.94 1014 10 16 0.00 0.00
10:53 am 10:53 Mostly Cloudy 78 25.6 72 22.2 82 82 NW 3 6 29.96 1014 10 16 0.00 0.00
11:53 am 11:53 Mostly Cloudy 79 26.1 72 22.2 79 79 Calm 29.95 1014 10 16 0.00 0.00
12:53 pm 12:53 Partly Cloudy 79 26.1 73 22.8 82 82 VRB 5 7 29.93 1014 10 16 0.00 0.00
1:53 pm 13:53 Mostly Cloudy 81 27.2 73 22.8 77 77 SSW 6 9 29.91 1013 10 16 0.00 0.00
2:48 pm 14:48 Mostly Cloudy with Light Rain 79 26 73 23 84 84 SSW 7 11 29.91 1013 9 14 0.04 1.02
2:53 pm 14:53 Mostly Cloudy 79 26.1 74 23.3 85 85 S 6 9 29.91 1013 10 16 0.04 1.02
3:48 pm 15:48 Cloudy with Thunderstorms 73 23 68 20 83 83 N 17 28 29.91 1013 3 4 0.05 1.27
3:53 pm 15:53 Cloudy with Strong Thunderstorms 72 22.2 67 19.4 84 84 N 10 17 29.92 1013 1 2 0.10 2.54
3:55 pm 15:55 Cloudy with Strong Thunderstorms 71 21.7 68 20 90 90 NNW 14 22 29.91 1013 1 2 0.06 1.52
4:02 pm 16:02 Cloudy with Strong Thunderstorms 71 21.7 68 20 90 90 NW 17 28 29.91 1013 1 1 0.38 9.65
4:10 pm 16:10 Cloudy with Strong Thunderstorms 75 23.9 66 18.9 74 74 VRB 3 6 29.88 1012 0 0 0.67 17.02
4:18 pm 16:18 Cloudy with Strong Thunderstorms 73 22.8 68 20 84 84 VRB 3 6 29.88 1012 1 1 0.78 19.81
4:22 pm 16:22 Cloudy with Thunderstorms 72 22.2 69 20.6 91 91 E 3 6 29.88 1012 1 2 0.79 20.07
4:27 pm 16:27 Cloudy with Thunderstorms 72 22.2 70 21.1 94 94 E 3 6 29.91 1013 4 6 0.79 20.07
4:51 pm 16:51 Cloudy 73 23 70 21 89 89 N 6 9 29.88 1012 10 16 0.79 20.07
4:53 pm 16:53 Cloudy with Light Rain 73 22.8 70 21.1 90 90 N 6 9 29.90 1013 8 13 0.79 20.07
5:03 pm 17:03 Cloudy with Nearby Thunderstorms 73 22.8 70 21.1 90 90 NW 6 9 29.88 1012 2 3 0.05 1.27
5:20 pm 17:20 Cloudy with Rain 73 22.8 71 21.7 94 94 Calm 29.88 1012 2 3 0.12 3.05
5:24 pm 17:24 Cloudy with Light Rain 74 23.3 71 21.7 91 91 Calm 29.88 1012 3 5 0.12 3.05
5:53 pm 17:53 Cloudy 74 23.3 71 21.7 91 91 SW 5 7 29.88 1012 10 16 0.13 3.30
6:53 pm 18:53 Cloudy 76 24.4 72 22.2 88 88 VRB 3 6 29.88 1012 10 16 0.00 0.00
7:53 pm 19:53 Cloudy 76 24.4 72 22.2 88 88 Calm 29.89 1012 10 16 0.00 0.00
8:53 pm 20:53 Cloudy 73 22.8 71 21.7 94 94 ESE 5 7 29.90 1012 10 16 0.00 0.00
9:53 pm 21:53 Cloudy 74 23.3 71 21.7 91 91 Calm 29.91 1013 10 16 0.00 0.00
10:53 pm 22:53 Mostly Cloudy 72 22.2 70 21.1 94 94 SW 3 6 29.91 1013 8 13 0.00 0.00
11:53 pm 23:53 Mostly Clear with Mist and Fog 72 22.2 70 21.1 94 94 NNW 3 6 29.90 1013 5 8 0.00 0.00

Powered by AerisWeather